OE-11179 Weather Reports


time (UTC)temp
C
wind
direction
speed
KPH
gust
KPH
rain 1hr
cm
rain 24hr
cm
rain mn
cm
humidity
%
barometer
mb
20260903085532 20 142 4.8 8.0 0.00 0.00 0.00 54
20260903084145 21 124 1.6 6.4 0.00 0.00 0.00 56
20260903083533 21 92 3.2 11.3 0.00 0.00 0.00 53
20260903082533 20 41 3.2 9.7 0.00 0.00 0.00 53
20260903081146 19 81 3.2 8.0 0.00 0.00 0.00 61
20260903080533 18 68 4.8 6.4 0.00 0.00 0.00 63
20260903075533 17 40 1.6 6.4 0.00 0.00 0.00 67
20260903074146 17 83 3.2 8.0 0.00 0.00 0.00 67
20260903073532 17 83 1.6 6.4 0.00 0.00 0.00 66
20260903072532 16 78 3.2 8.0 0.00 0.00 0.00 71
20260903071146 15 77 3.2 9.7 0.00 0.00 0.00 78
20260903070533 14 80 3.2 6.4 0.00 0.00 0.00 77
20260903065533 13 100 1.6 4.8 0.00 0.00 0.00 82
20260903064145 13 352 3.2 8.0 0.00 0.00 0.00 81
20260903063532 13 352 1.6 6.4 0.00 0.00 0.00 84
20260903062533 13 264 1.6 6.4 0.00 0.00 0.00 86
20260903061146 13 188 4.8 8.0 0.00 0.00 0.00 88
20260903060533 12 206 3.2 6.4 0.00 0.00 0.00 90
20260903055533 12 173 3.2 6.4 0.00 0.00 0.00 88
20260903054145 12 217 1.6 6.4 0.00 0.00 0.00 92
20260903053533 12 213 1.6 4.8 0.00 0.00 0.00 88
20260903052533 12 224 3.2 4.8 0.00 0.00 0.00 90
20260903051146 12 235 1.6 6.4 0.00 0.00 0.00 89
20260903050532 12 213 1.6 6.4 0.00 0.00 0.00 89
20260903045533 12 270 1.6 4.8 0.00 0.00 0.00 89
20260903044145 12 298 1.6 4.8 0.00 0.00 0.00 92
20260903043532 12 299 1.6 4.8 0.00 0.00 0.00 89
20260903042533 12 355 0.0 4.8 0.00 0.00 0.00 90
20260903041145 12 270 1.6 6.4 0.00 0.00 0.00 92
20260903040533 12 162 1.6 6.4 0.00 0.00 0.00 90
20260903035533 12 217 1.6 3.2 0.00 0.00 0.00 89
20260903034532 12 221 1.6 1.6 0.00 0.00 0.00 88
20260903033532 12 316 0.0 1.6 0.00 0.00 0.00 89
20260903032533 12 360 0.0 3.2 0.00 0.00 0.00 89
20260903031146 12 288 1.6 3.2 0.00 0.00 0.00 87
20260903030533 12 232 0.0 1.6 0.00 0.00 0.00 88
20260903025533 12 235 1.6 3.2 0.00 0.00 0.00 88
20260903024533 12 260 1.6 3.2 0.00 0.00 0.00 88
20260903023533 12 273 1.6 3.2 0.00 0.00 0.00 89
20260903022533 12 277 1.6 3.2 0.00 0.00 0.00 90
20260903021145 13 193 0.0 3.2 0.00 0.00 0.00 88
20260903020533 13 254 1.6 3.2 0.00 0.00 0.00 88
20260903015533 13 289 1.6 4.8 0.00 0.00 0.00 88
20260903014145 13 229 0.0 3.2 0.00 0.00 0.00 90
20260903013531 13 277 3.2 6.4 0.00 0.00 0.00 88
20260903012532 13 174 1.6 8.0 0.00 0.00 0.00 88
20260903011146 13 31 1.6 6.4 0.00 0.00 0.00 88
20260903010533 13 301 1.6 4.8 0.00 0.00 0.00 90
20260903005533 13 242 1.6 6.4 0.00 0.00 0.00 89
20260903004146 13 229 1.6 4.8 0.00 0.00 0.00 89
20260903003533 13 95 0.0 6.4 0.00 0.00 0.00 88
20260903002533 13 242 3.2 8.0 0.00 0.00 0.00 91
20260903001545 13 319 1.6 3.2 0.00 0.00 0.00 90
20260903000532 13 171 0.0 3.2 0.00 0.00 0.00 89
20260902235532 13 20 0.0 4.8 0.00 0.00 0.00 88
20260902234146 13 360 0.0 8.0 0.00 0.00 0.00 88
20260902233532 13 209 1.6 9.7 0.00 0.00 0.00 90
20260902232532 13 188 1.6 6.4 0.00 0.00 0.00 87
20260902231533 13 226 1.6 4.8 0.00 0.00 0.00 87
20260902230532 13 238 1.6 6.4 0.00 0.00 0.00 87
20260902225533 13 259 1.6 3.2 0.00 0.00 0.00 86
20260902224146 13 245 1.6 4.8 0.00 0.00 0.00 87
20260902223533 13 203 1.6 3.2 0.00 0.00 0.00 86
20260902222533 13 301 1.6 4.8 0.00 0.00 0.00 86
20260902221146 13 150 1.6 6.4 0.00 0.00 0.00 84
20260902220532 14 189 4.8 9.7 0.00 0.00 0.00 83
20260902215533 13 237 3.2 8.0 0.00 0.00 0.00 84
20260902214146 13 188 3.2 6.4 0.00 0.00 0.00 83
20260902213532 14 203 1.6 6.4 0.00 0.00 0.00 82
20260902211146 14 143 1.6 4.8 0.00 0.00 0.00 84
20260902210533 14 195 3.2 6.4 0.00 0.00 0.00 81
20260902205533 14 266 3.2 4.8 0.00 0.00 0.00 82
20260902204147 14 213 1.6 6.4 0.00 0.00 0.00 83
20260902203532 14 204 3.2 8.0 0.00 0.00 0.00 82
20260902202533 14 229 1.6 4.8 0.00 0.00 0.00 81
20260902201146 14 226 1.6 3.2 0.00 0.00 0.00 82
20260902200533 13 193 3.2 9.7 0.00 0.00 0.00 83
20260902195533 14 222 1.6 4.8 0.00 0.00 0.00 81
20260902194146 15 257 1.6 8.0 0.00 0.00 0.00 80
20260902193533 15 199 3.2 6.4 0.00 0.00 0.00 80
20260902192532 15 239 3.2 8.0 0.00 0.00 0.00 82
20260902191146 15 210 1.6 4.8 0.00 0.00 0.00 79
20260902190532 15 229 1.6 3.2 0.00 0.00 0.00 75
20260902185533 15 249 1.6 3.2 0.00 0.00 0.00 74
20260902184146 15 247 1.6 4.8 0.00 0.00 0.00 72
20260902183533 15 217 1.6 4.8 0.00 0.00 0.00 72
20260902182533 15 241 1.6 3.2 0.00 0.00 0.00 72
20260902181146 16 262 1.6 4.8 0.00 0.00 0.00 71
20260902180533 16 241 1.6 4.8 0.00 0.00 0.00 70
20260902175533 15 265 3.2 4.8 0.00 0.00 0.00 72
20260902174146 16 228 1.6 4.8 0.00 0.00 0.00 70
20260902173532 16 221 3.2 4.8 0.00 0.00 0.00 69
20260902172533 17 278 3.2 4.8 0.00 0.00 0.00 66
20260902171146 17 294 1.6 3.2 0.00 0.00 0.00 66
20260902170533 17 261 1.6 3.2 0.00 0.00 0.00 62
20260902165533 18 249 1.6 4.8 0.00 0.00 0.00 60
20260902164146 19 136 1.6 8.0 0.00 0.00 0.00 55
20260902163533 20 333 6.4 14.5 0.00 0.00 0.00 49
20260902162533 20 314 6.4 11.3 0.00 0.00 0.00 47
20260902161146 20 315 9.7 17.7 0.00 0.00 0.00 47
20260902160532 21 309 9.7 20.9 0.00 0.00 0.00 43
20260902155533 20 310 8.0 12.9 0.00 0.00 0.00 52
20260902154146 21 320 9.7 17.7 0.00 0.00 0.00 42
20260902153533 21 320 12.9 22.5 0.00 0.00 0.00 42
20260902152532 21 332 9.7 22.5 0.00 0.00 0.00 44
20260902151146 21 323 11.3 19.3 0.00 0.00 0.00 42
20260902150533 21 342 8.0 20.9 0.00 0.00 0.00 45
20260902145533 22 8 6.4 17.7 0.00 0.00 0.00 42
20260902144146 22 6 4.8 19.3 0.00 0.00 0.00 46
20260902143532 23 24 6.4 19.3 0.00 0.00 0.00 31
20260902142533 22 43 6.4 19.3 0.00 0.00 0.00 40
20260902141146 23 6 8.0 19.3 0.00 0.00 0.00 35
20260902140533 22 352 8.0 19.3 0.00 0.00 0.00 45
20260902135533 23 34 6.4 17.7 0.00 0.00 0.00 37
20260902134145 23 31 6.4 16.1 0.00 0.00 0.00 37
20260902133533 23 17 6.4 19.3 0.00 0.00 0.00 40
20260902132533 22 338 8.0 16.1 0.00 0.00 0.00 42
20260902131146 23 10 3.2 9.7 0.00 0.00 0.00 43
20260902130533 23 16 6.4 19.3 0.00 0.00 0.00 38
20260902125533 23 342 9.7 19.3 0.00 0.00 0.00 44
20260902124145 23 4 4.8 16.1 0.00 0.00 0.00 45
20260902123533 23 14 6.4 14.5 0.00 0.00 0.00 45
20260902122533 23 358 9.7 20.9 0.00 0.00 0.00 46
20260902121146 23 341 9.7 20.9 0.00 0.00 0.00 46
20260902120532 22 335 9.7 19.3 0.00 0.00 0.00 49
20260902115532 23 346 11.3 22.5 0.00 0.00 0.00 47
20260902114146 23 347 9.7 20.9 0.00 0.00 0.00 49
20260902113533 22 353 9.7 20.9 0.00 0.00 0.00 50
20260902112533 22 350 9.7 19.3 0.00 0.00 0.00 48
20260902111146 22 6 9.7 22.5 0.00 0.00 0.00 48
20260902110533 22 353 8.0 20.9 0.00 0.00 0.00 48
20260902105533 22 7 9.7 20.9 0.00 0.00 0.00 48
20260902104146 22 13 6.4 17.7 0.00 0.00 0.00 50
20260902103533 22 6 9.7 20.9 0.00 0.00 0.00 51
20260902102532 21 360 8.0 17.7 0.00 0.00 0.00 54
20260902101146 21 347 9.7 17.7 0.00 0.00 0.00 52
20260902100533 21 345 11.3 20.9 0.00 0.00 0.00 53
20260902095533 21 350 8.0 17.7 0.00 0.00 0.00 55
20260902094146 20 19 8.0 17.7 0.00 0.00 0.00 53
20260902093533 20 30 9.7 17.7 0.00 0.00 0.00 54
20260902092532 20 32 9.7 17.7 0.00 0.00 0.00 54
20260902091145 20 35 6.4 16.1 0.00 0.00 0.00 57
20260902090533 19 60 4.8 11.3 0.00 0.00 0.00 61